GW7259 Weather Reports


time (UTC)temp
C
wind
direction
speed
KPH
gust
KPH
rain 1hr
cm
rain 24hr
cm
rain mn
cm
humidity
%
barometer
mb
20260506203718 27 114 14.5 16.1 0.00 0.00 0.00 20 1021.0
20260506202214 28 112 0.0 0.0 0.00 0.00 0.00 19 1021.4
20260506200711 27 90 0.0 0.0 0.00 0.00 0.00 19 1021.4
20260506195206 26 96 0.0 0.0 0.00 0.00 0.00 20 1021.7
20260506193704 27 138 0.0 0.0 0.00 0.00 0.00 21 1022.0
20260506192159 26 137 0.0 0.0 0.00 0.00 0.00 21 1021.7
20260506190656 26 136 0.0 0.0 0.00 0.00 0.00 22 1022.0
20260506185152 26 126 0.0 0.0 0.00 0.00 0.00 21 1022.5
20260506183649 25 123 0.0 0.0 0.00 0.00 0.00 22 1022.5
20260506182145 25 168 0.0 0.0 0.00 0.00 0.00 23 1022.5
20260506180643 25 102 0.0 0.0 0.00 0.00 0.00 23 1022.5
20260506175138 24 132 0.0 0.0 0.00 0.00 0.00 25 1022.5
20260506173637 24 144 0.0 0.0 0.00 0.00 0.00 25 1022.5
20260506172132 23 118 0.0 0.0 0.00 0.00 0.00 26 1022.5
20260506170631 23 92 0.0 0.0 0.00 0.00 0.00 26 1022.5
20260506165127 22 114 0.0 0.0 0.00 0.00 0.00 27 1022.5
20260506163623 22 73 0.0 0.0 0.00 0.00 0.00 28 1022.5
20260506162122 21 96 0.0 0.0 0.00 0.00 0.00 28 1022.0
20260506160619 21 136 0.0 0.0 0.00 0.00 0.00 29 1022.0
20260506155116 20 84 0.0 0.0 0.00 0.00 0.00 32 1021.7
20260506152323 20 160 0.0 0.0 0.00 0.00 0.00 32 1021.7
20260506150820 19 156 0.0 0.0 0.00 0.00 0.00 33 1021.7
20260506145316 19 119 0.0 0.0 0.00 0.00 0.00 34 1021.7
20260506143815 18 107 0.0 0.0 0.00 0.00 0.00 36 1021.7
20260506142313 18 92 0.0 0.0 0.00 0.00 0.00 37 1021.4
20260506140812 17 74 0.0 0.0 0.00 0.00 0.00 38 1021.4
20260506135308 17 79 0.0 0.0 0.00 0.00 0.00 38 1021.0
20260506133804 16 66 0.0 0.0 0.00 0.00 0.00 39 1020.6
20260506132301 15 238 0.0 0.0 0.00 0.00 0.00 41 1020.2
20260506130757 14 114 0.0 0.0 0.00 0.00 0.00 42 1020.2
20260506125256 15 90 0.0 0.0 0.00 0.00 0.00 42 1020.2
20260506123754 15 96 0.0 0.0 0.00 0.00 0.00 41 1019.9
20260506122252 15 84 0.0 0.0 0.00 0.00 0.00 40 1019.9
20260506120750 15 84 0.0 0.0 0.00 0.00 0.00 40 1019.9
20260506115249 15 84 0.0 0.0 0.00 0.00 0.00 39 1019.6
20260506113748 15 84 0.0 0.0 0.00 0.00 0.00 39 1019.6
20260506112245 15 85 0.0 0.0 0.00 0.00 0.00 39 1019.1
20260506110743 16 90 0.0 0.0 0.00 0.00 0.00 38 1019.1
20260506105240 15 90 0.0 0.0 0.00 0.00 0.00 36 1019.1
20260506103738 14 96 0.0 0.0 0.00 0.00 0.00 37 1019.1
20260506102236 14 96 0.0 0.0 0.00 0.00 0.00 37 1019.1
20260506100733 15 96 0.0 0.0 0.00 0.00 0.00 36 1018.8
20260506095231 15 96 0.0 0.0 0.00 0.00 0.00 35 1018.4
20260506093731 16 96 0.0 0.0 0.00 0.00 0.00 35 1018.4
20260506092229 15 96 0.0 0.0 0.00 0.00 0.00 35 1018.4
20260506090727 16 96 0.0 0.0 0.00 0.00 0.00 34 1018.1
20260506085228 15 96 0.0 0.0 0.00 0.00 0.00 34 1018.1
20260506083724 16 96 0.0 0.0 0.00 0.00 0.00 33 1018.1
20260506082220 16 91 0.0 0.0 0.00 0.00 0.00 32 1018.1
20260506080719 16 312 0.0 0.0 0.00 0.00 0.00 32 1018.1
20260506072211 17 312 0.0 0.0 0.00 0.00 0.00 31 1018.1
20260506070708 17 302 0.0 0.0 0.00 0.00 0.00 31 1017.8
20260506062200 18 85 0.0 0.0 0.00 0.00 0.00 31 1017.8
20260506060658 18 306 0.0 0.0 0.00 0.00 0.00 31 1017.3
20260506050648 21 238 0.0 0.0 0.00 0.00 0.00 28 1017.0
20260506043642 21 239 0.0 0.0 0.00 0.00 0.00 28 1016.3
20260506042142 22 238 0.0 0.0 0.00 0.00 0.00 27 1016.3
20260506040641 22 245 0.0 0.0 0.00 0.00 0.00 27 1016.3
20260506035137 22 216 0.0 0.0 0.00 0.00 0.00 26 1015.5
20260506033634 22 169 0.0 0.0 0.00 0.00 0.00 25 1015.5
20260506032131 22 156 0.0 0.0 0.00 0.00 0.00 24 1015.2
20260506030629 22 126 0.0 0.0 0.00 0.00 0.00 23 1015.2
20260506025124 23 150 0.0 0.0 0.00 0.00 0.00 22 1015.2
20260506023621 23 132 0.0 0.0 0.00 0.00 0.00 22 1015.2
20260506022118 23 156 0.0 0.0 0.00 0.00 0.00 21 1014.9
20260506020615 23 138 0.0 0.0 0.00 0.00 0.00 20 1014.9
20260506015113 23 150 0.0 0.0 0.00 0.00 0.00 19 1014.4
20260506013611 24 132 0.0 0.0 0.00 0.00 0.00 19 1014.4
20260506012105 25 234 0.0 0.0 0.00 0.00 0.00 18 1014.9
20260506010605 24 236 0.0 0.0 0.00 0.00 0.00 19 1014.4
20260506005100 25 138 0.0 0.0 0.00 0.00 0.00 19 1014.4
20260506003556 26 71 0.0 0.0 0.00 0.00 0.00 17 1014.4
20260506002056 26 244 0.0 0.0 0.00 0.00 0.00 17 1014.1
20260506000553 25 199 0.0 0.0 0.00 0.00 0.00 18 1014.4
20260505235051 24 246 0.0 0.0 0.00 0.00 0.00 18 1014.1
20260505233548 25 12 0.0 0.0 0.00 0.00 0.00 17 1014.4
20260505232046 24 210 0.0 0.0 0.00 0.00 0.00 18 1014.1
20260505230544 25 188 0.0 0.0 0.00 0.00 0.00 18 1014.4
20260505225039 24 150 0.0 0.0 0.00 0.00 0.00 20 1014.9
20260505223536 25 167 0.0 0.0 0.00 0.00 0.00 18 1014.9
20260505222036 25 139 0.0 0.0 0.00 0.00 0.00 19 1015.2
20260505220533 25 108 0.0 0.0 0.00 0.00 0.00 18 1015.2
20260505215032 23 150 0.0 0.0 0.00 0.00 0.00 18 1015.2
20260505213530 23 192 8.0 9.7 0.00 0.00 0.00 20 1015.5
20260505212025 23 148 0.0 0.0 0.00 0.00 0.00 21 1015.9
20260505210522 22 162 0.0 0.0 0.00 0.00 0.00 21 1015.9
20260505205020 23 155 12.9 16.1 0.00 0.00 0.00 22 1016.3